Estherville, IA

11:02 PM CDT on June 28, 2017 (GMT -0500)
Estherville Municipal

Weather History for KEST - November, 2013

Change the Weather History Date:

Wednesday, November 20, 2013

  Actual Average Record
Temperature  
Mean Temperature 40 °F 30 °F  
Max Temperature 50 °F 39 °F 62 °F (1989)
Min Temperature 29 °F 21 °F -2 °F (2014)
Degree Days  
Heating Degree Days 25 35  
Month to date heating degree days 555 591  
Since 1 July heating degree days 1218 1340  
Cooling Degree Days 0 0  
Month to date cooling degree days 0 0  
Year to date cooling degree days 712 593  
Moisture  
Dew Point 32 °F    
Average Humidity 76    
Maximum Humidity 100    
Minimum Humidity 52    
Precipitation  
Precipitation 0.00 in 0.06 in 1.25 in (1953)
Month to date precipitation 0.38 1.14  
Sea Level Pressure  
Sea Level Pressure 29.90 in    
Wind  
Wind Speed 17 mph (SSE)    
Max Wind Speed 29 mph    
Max Gust Speed 36 mph    
Visibility 8 miles    
Events Fog    
T = Trace of Precipitation, MM = Missing Value Source: NWS Daily Summary

Daily Weather History Graph

Daily Weather History Graph

Search for Another Location

Airport or City:

Trip Planner

Search our weather history database for the weather conditions in past years. The results will help you decide how hot, cold, wet, or windy it might be!

Date:

Astronomy

Nov. 20, 2013 Rise Set
Actual Time 7:19 AM CST 4:49 PM CST
Civil Twilight 6:47 AM CST 5:21 PM CST
Nautical Twilight 6:12 AM CST 5:56 PM CST
Astronomical Twilight 5:38 AM CST 6:30 PM CST
Moon 7:33 PM CST (11/20) 9:45 AM CST (11/20)
Length of Visible Light 10h 33m
Length of Day
9h 30m
Waning Gibbous, 91% of the Moon is Illuminated
Nov 20
Waning Gibbous
Nov 25
Last Quarter
Dec 2
New
Dec 9
First Quarter
Dec 17
Full

Hourly Weather History & Observations

Time (CST) Temp. Windchill Dew Point Humidity Pressure Visibility Wind Dir Wind Speed Gust Speed Precip Events Conditions
12:52 AM 46.0 °F 37.6 °F 30.0 °F 54% 29.87 in 10.0 mi South 24.2 mph 32.2 mph N/A   Overcast
1:52 AM 45.0 °F 36.6 °F 30.0 °F 56% 29.87 in 10.0 mi South 21.9 mph 33.4 mph N/A   Overcast
2:52 AM 44.1 °F 34.8 °F 30.0 °F 58% 29.86 in 10.0 mi South 25.3 mph 29.9 mph N/A   Clear
3:52 AM 43.0 °F 33.5 °F 30.0 °F 60% 29.85 in 10.0 mi South 24.2 mph 31.1 mph N/A   Partly Cloudy
4:52 AM 43.0 °F 34.2 °F 28.9 °F 58% 29.85 in 10.0 mi South 20.7 mph 29.9 mph N/A   Partly Cloudy
5:52 AM 42.1 °F 32.8 °F 28.0 °F 58% 29.85 in 10.0 mi SSE 21.9 mph - N/A   Clear
6:52 AM 43.0 °F 33.5 °F 28.9 °F 58% 29.85 in 10.0 mi South 24.2 mph 31.1 mph N/A   Partly Cloudy
7:52 AM 43.0 °F 34.0 °F 32.0 °F 65% 29.86 in 10.0 mi South 21.9 mph 29.9 mph N/A   Mostly Cloudy
8:52 AM 43.0 °F 34.2 °F 32.0 °F 65% 29.88 in 10.0 mi SSE 20.7 mph 26.5 mph N/A   Overcast
9:52 AM 43.0 °F 34.2 °F 32.0 °F 65% 29.89 in 10.0 mi South 20.7 mph 29.9 mph N/A   Overcast
10:52 AM 45.0 °F 36.0 °F 32.0 °F 60% 29.88 in 10.0 mi South 25.3 mph 31.1 mph N/A   Overcast
11:52 AM 46.0 °F 38.0 °F 33.1 °F 61% 29.86 in 10.0 mi South 21.9 mph 29.9 mph N/A   Overcast
12:52 PM 46.9 °F - 33.1 °F 59% 29.86 in 10.0 mi SSE 20.7 mph - N/A   Overcast
1:52 PM 48.0 °F - 33.1 °F 56% 29.84 in 10.0 mi South 17.3 mph - N/A   Clear
2:52 PM 50.0 °F - 34.0 °F 54% 29.84 in 10.0 mi SSE 17.3 mph - N/A   Clear
3:52 PM 46.0 °F 39.3 °F 35.1 °F 66% 29.85 in 10.0 mi SSE 16.1 mph - N/A   Clear
4:52 PM 42.1 °F 35.7 °F 34.0 °F 73% 29.87 in 10.0 mi SE 11.5 mph - N/A   Clear
5:52 PM 39.0 °F 32.8 °F 34.0 °F 82% 29.91 in 10.0 mi SE 9.2 mph - N/A   Clear
6:52 PM 39.0 °F 31.0 °F 35.1 °F 86% 29.93 in 10.0 mi SSE 13.8 mph - N/A   Clear
7:52 PM 37.9 °F 30.9 °F 35.1 °F 89% 29.93 in 9.0 mi SE 10.4 mph - N/A   Mostly Cloudy
8:52 PM 35.1 °F 27.9 °F 34.0 °F 96% 29.96 in 7.0 mi SE 9.2 mph - N/A   Partly Cloudy
9:52 PM 33.1 °F 27.7 °F 32.0 °F 96% 29.99 in 6.0 mi SSE 5.8 mph - N/A   Mostly Cloudy
10:52 PM 30.0 °F 23.2 °F 30.0 °F 100% 30.00 in 4.0 mi SSE 6.9 mph - N/A   Clear
11:33 PM 30.0 °F 24.1 °F 30.0 °F 100% 29.98 in 1.8 mi SSE 5.8 mph - N/A   Clear
11:37 PM 30.0 °F 24.1 °F 30.0 °F 100% 29.98 in 0.8 mi SSE 5.8 mph - N/A   Clear
11:52 PM 30.0 °F 25.2 °F 28.9 °F 96% 30.01 in 0.2 mi SE 4.6 mph - N/A Fog Light Freezing Fog